Regional Weather Roundup
Issued by NWS

Home | Current Version | Previous Version | Graphics & Text | Print | Product List | Glossary Off
Versions: 1 2 3 4 5 6 7 8 9 10 11 12 13 14 15 16 17 18 19 20 21 22 23 24 25 26 27 28 29 30 31 32 33 34 35 36 37 38 39 40 41 42 43 44 45 46 47 48 49 50

000
ASUS43 KIND 220009
RWRIN

WEATHER ROUNDUP FOR INDIANA
NATIONAL WEATHER SERVICE INDIANAPOLIS IN
700 PM EST FRI NOV 21 2014

NOTE: "FAIR" INDICATES FEW OR NO CLOUDS BELOW 12,000 FEET WITH NO
SIGNIFICANT WEATHER AND/OR OBSTRUCTIONS TO VISIBILITY.

* - STATION DOES NOT REPORT WEATHER SUCH AS PRECIPITATION OR FOG.

+ - STATION NOT QUALITY CONTROLLED BY THE NATIONAL WEATHER SERVICE.
    USE DATA WITH CAUTION...ESPECIALLY DEWPOINT AND RELATIVE
    HUMIDITY OBSERVATIONS.

INZ001>003-010>013-019-020-220100-
NORTHWEST INDIANA

CITY           SKY/WX    TMP DP  RH WIND       PRES   REMARKS
GARY /AIRPORT/ PTCLDY    32   9  37 S8        30.35F WCI  25
KNOX *+        CLEAR     25  11  56 S8        30.36F WCI  16
LA PORTE +     PTCLDY    27  13  56 S5        30.36S WCI  21
6HR MIN TEMP:  27; 6HR MAX TEMP:  34;

MICHIGAN CITY+ CLEAR     28   9  43 S8        30.35F WCI  20
MONTICELLO +   CLEAR     27  15  59 CALM      30.37F
RENSSELAER +   CLEAR     28  16  59 SE7       30.36F WCI  21
VALPARAISO     CLEAR     25  10  53 SE9       30.35F WCI  15
6HR MIN TEMP:  25; 6HR MAX TEMP:  33;


$$

LMZ046-743>745-220100-
SOUTHERN LAKE MICHIGAN

STATION/POSITION TIME  TEMP WIND        PRES
                       AIR  DIR/SP/G
                 (UTC) (F)  (DEG/KT/KT) (MB)
MICHIGAN CITY    0000   29  140/ 10/ 15   N/A

$$

INZ004-005-014>016-021>024-220100-
NORTH CENTRAL INDIANA

CITY           SKY/WX    TMP DP  RH WIND       PRES   REMARKS
ELKHART        CLEAR     27  10  50 S8        30.37F WCI  18
GOSHEN         CLEAR     24  12  60 SE8       30.36F WCI  15
6HR MIN TEMP:  24; 6HR MAX TEMP:  31;

LOGANSPORT +   CLEAR     21  12  68 SE6       30.39S WCI  14
PERU/GRISSOM   CLEAR     23  16  74 SE7       30.37F WCI  15
6HR MIN TEMP:  23; 6HR MAX TEMP:  30;

ROCHESTER +    CLEAR     30  16  55 SE7       30.38S WCI  23
SOUTH BEND     CLEAR     26  12  55 S10       30.36F WCI  16
6HR MIN TEMP:  26; 6HR MAX TEMP:  31;

WARSAW +       CLEAR     25  12  58 SE6       30.37F WCI  18

$$

INZ006>009-017-018-025>027-220100-
NORTHEAST INDIANA

CITY           SKY/WX    TMP DP  RH WIND       PRES   REMARKS
ANGOLA *+      CLEAR     21  12  68 S6        30.38F WCI  14
FORT WAYNE     PTCLDY    21  12  68 SE8       30.40F WCI  11
6HR MIN TEMP:  21; 6HR MAX TEMP:  28;

HUNTINGTON +   PTCLDY    24  12  60 SE5       30.39F WCI  18
6HR MIN TEMP:  24; 6HR MAX TEMP:  29;


$$

INZ028-029-035-036-043>045-051>053-220100-
WEST CENTRAL INDIANA

CITY           SKY/WX    TMP DP  RH WIND       PRES   REMARKS
GREENCASTLE +  CLEAR     27  12  54 SE7       30.38F WCI  19
LAFAYETTE      CLEAR     26  13  57 SE6       30.38F WCI  19
6HR MIN TEMP:  26; 6HR MAX TEMP:  32;

TERRE HAUTE    CLEAR     30  13  49 SE5       30.38F WCI  25
6HR MIN TEMP:  29; 6HR MAX TEMP:  37;


$$

INZ030>032-037>040-046>048-054>057-064-065-220100-
CENTRAL INDIANA

CITY           SKY/WX    TMP DP  RH WIND       PRES   REMARKS
CP ATTERBURY + CLEAR     30  12  47 SE3       30.41S
FRANKFORT +    CLEAR     21  15  76 SE7       30.39S WCI  12
INDIANAPOLIS   PTCLDY    27  12  53 SE7       30.39R WCI  19
6HR MIN TEMP:  27; 6HR MAX TEMP:  33; 6HR PCP: TRACE;

-EAGLE CREEK   CLEAR     29  11  47 SE7       30.38F WCI  22
6HR MIN TEMP:  29; 6HR MAX TEMP:  33;

KOKOMO *+      CLEAR     23  12  63 SE8       30.38F WCI  14
MARION +       CLEAR     25  12  58 SE9       30.39F WCI  15
MT COMFORT *+  CLEAR     27   7  43 SE6       30.40F WCI  20
SHELBYVILLE    CLEAR     28  14  55 SE7       30.41S WCI  21
6HR MIN TEMP:  27; 6HR MAX TEMP:  34;

ZIONSVILLE +   CLEAR     27  12  53 SE6       30.39S WCI  20
6HR MIN TEMP:  26; 6HR MAX TEMP:  32;


$$

INZ033-034-041-042-049-050-058-059-220100-
EAST CENTRAL INDIANA

CITY           SKY/WX    TMP DP  RH WIND       PRES   REMARKS
MUNCIE         CLEAR     26  11  52 SE6       30.40F WCI  19
6HR MIN TEMP:  26; 6HR MAX TEMP:  31;


$$

INZ060-061-067>069-081>083-085>088-220100-
SOUTHWEST INDIANA

CITY           SKY/WX    TMP DP  RH WIND       PRES   REMARKS
EVANSVILLE     CLOUDY    40  20  44 E3        30.39R
6HR MIN TEMP:  37; 6HR MAX TEMP:  43;

HUNTINGBURG *+ CLEAR     34  16  47 E8        30.40S WCI  27
6HR MIN TEMP:  34; 6HR MAX TEMP:  39;

WASHINGTON +   CLEAR     31  23  72 SE6       30.38F WCI  25
6HR MIN TEMP:  31; 6HR MAX TEMP:  38;


$$

INZ062-063-066-070>080-084-089>092-220100-
SOUTH CENTRAL AND SOUTHEAST INDIANA

CITY           SKY/WX    TMP DP  RH WIND       PRES   REMARKS
BLOOMINGTON    CLEAR     29  11  47 SE6       30.39S WCI  23
6HR MIN TEMP:  28; 6HR MAX TEMP:  36;

SEYMOUR +      CLEAR     30  12  47 SE5       30.42  WCI  25

$$



USA.gov is the U.S. government's official web portal to all federal, state and local government web resources and services.